K1FFK-1 Weather Reports


time (UTC)temp
C
wind
direction
speed
KPH
gust
KPH
rain 1hr
cm
rain 24hr
cm
rain mn
cm
humidity
%
barometer
mb
20260507031133 2 316 12.9 12.9 0.00 0.00 0.00 98 1009.9
20260507030133 2 310 16.1 16.1 0.00 0.00 0.00 98 1009.7
20260507025133 2 309 14.5 14.5 0.00 0.00 0.00 98 1009.9
20260507024136 2 316 17.7 17.7 0.00 0.00 0.00 98 1009.9
20260507023136 2 310 14.5 14.5 0.00 0.00 0.00 98 1009.7
20260507022133 2 305 14.5 14.5 0.00 0.00 0.00 98 1009.9
20260507021134 2 312 14.5 14.5 0.00 0.00 0.00 98 1009.9
20260507020134 3 316 14.5 14.5 0.00 0.00 0.00 98 1010.1
20260507015338 3 312 12.9 12.9 0.00 0.00 0.00 98 1009.9
20260507015133 3 312 12.9 12.9 0.00 0.00 0.00 98 1009.9
20260507014133 3 313 12.9 12.9 0.00 0.00 0.00 98 1010.1
20260507013134 3 323 8.0 8.0 0.00 0.00 0.00 98 1010.0
20260507012133 3 317 14.5 14.5 0.00 0.00 0.00 98 1010.0
20260507011133 3 313 12.9 12.9 0.00 0.00 0.00 98 1009.7
20260507010134 3 313 16.1 16.1 0.00 0.00 0.00 98 1009.5
20260507005141 3 313 17.7 17.7 0.00 0.00 0.00 98 1009.5
20260507005134 3 313 17.7 17.7 0.00 0.00 0.00 98 1009.5
20260507004133 4 313 17.7 17.7 0.00 0.00 0.00 98 1009.4
20260507003134 4 316 12.9 12.9 0.00 0.00 0.00 98 1009.7
20260507002134 5 327 11.3 11.3 0.00 0.00 0.00 98 1009.5
20260507001133 5 315 11.3 11.3 0.00 0.00 0.00 98 1009.5
20260507000133 5 310 11.3 11.3 0.00 0.00 0.00 98 1009.3
20260506235133 6 313 14.5 14.5 0.00 0.00 0.00 98 1009.3
20260506234134 6 319 11.3 11.3 0.00 0.00 0.00 98 1009.4
20260506233133 7 315 9.7 9.7 0.00 0.00 0.00 99 1009.3
20260506232133 7 313 9.7 9.7 0.00 0.00 0.00 99 1009.2
20260506231134 7 315 9.7 9.7 0.00 0.00 0.00 99 1009.1
20260506230135 8 320 12.9 12.9 0.00 0.00 0.00 99 1009.1
20260506225134 9 315 9.7 9.7 0.00 0.00 0.00 99 1009.0
20260506224133 10 303 1.6 1.6 0.00 0.00 0.00 99 1008.8
20260506223134 10 196 6.4 6.4 0.00 0.00 0.00 99 1008.7
20260506222133 10 234 4.8 4.8 0.00 0.00 0.00 99 1008.6
20260506221134 10 196 6.4 6.4 0.00 0.00 0.00 99 1008.7
20260506220133 10 232 4.8 4.8 0.00 0.00 0.00 99 1008.8
20260506215133 10 217 4.8 4.8 0.00 0.00 0.00 99 1008.8
20260506214133 10 201 4.8 4.8 0.00 0.00 0.00 99 1008.8
20260506213134 10 215 3.2 3.2 0.00 0.00 0.00 99 1008.8
20260506212133 10 188 3.2 3.2 0.00 0.00 0.00 99 1008.8
20260506211133 10 210 6.4 6.4 0.00 0.00 0.00 99 1008.9
20260506210133 10 219 6.4 6.4 0.00 0.00 0.00 99 1009.0
20260506205134 10 208 6.4 6.4 0.00 0.00 0.00 99 1009.0
20260506204134 10 198 4.8 4.8 0.00 0.00 0.00 100 1008.8
20260506203134 10 212 6.4 6.4 0.00 0.00 0.00 100 1009.0
20260506202134 10 202 9.7 9.7 0.00 0.00 0.00 100 1009.1
20260506201133 10 202 4.8 4.8 0.00 0.00 0.00 100 1009.1
20260506200134 10 203 8.0 8.0 0.00 0.00 0.00 100 1008.9
20260506195134 10 210 8.0 8.0 0.00 0.00 0.00 100 1009.2
20260506194134 10 199 11.3 11.3 0.00 0.00 0.00 100 1009.2
20260506193134 10 205 8.0 8.0 0.00 0.00 0.00 100 1008.9
20260506192240 10 203 11.3 11.3 0.00 0.00 0.00 100 1009.2
20260506192133 10 203 11.3 11.3 0.00 0.00 0.00 100 1009.2
20260506191134 10 205 8.0 8.0 0.00 0.00 0.00 100 1009.5
20260506190134 10 206 8.0 8.0 0.00 0.00 0.00 100 1009.5
20260506185135 10 205 6.4 6.4 0.00 0.00 0.00 100 1009.7
20260506184134 10 194 12.9 12.9 0.00 0.00 0.00 100 1009.7
20260506183134 10 208 8.0 8.0 0.00 0.00 0.00 100 1009.8
20260506182134 10 202 6.4 6.4 0.00 0.00 0.00 100 1009.9
20260506181134 10 194 6.4 6.4 0.00 0.00 0.00 100 1010.1
20260506180133 10 202 9.7 9.7 0.00 0.00 0.00 100 1010.0
20260506175134 10 199 8.0 8.0 0.00 0.00 0.00 100 1010.1
20260506174134 10 201 8.0 8.0 0.00 0.00 0.00 100 1010.3
20260506173134 10 187 9.7 9.7 0.00 0.00 0.00 100 1010.2
20260506172133 10 188 8.0 8.0 0.00 0.00 0.00 100 1010.5
20260506171134 10 208 8.0 8.0 0.00 0.00 0.00 100 1010.8
20260506170138 10 203 9.7 9.7 0.00 0.00 0.00 100 1010.9
20260506170134 10 203 9.7 9.7 0.00 0.00 0.00 100 1010.9
20260506165133 10 180 8.0 8.0 0.00 0.00 0.00 100 1011.2
20260506164133 10 184 6.4 6.4 0.00 0.00 0.00 100 1011.3
20260506163134 10 194 8.0 8.0 0.00 0.00 0.00 100 1011.2
20260506162134 10 191 8.0 8.0 0.00 0.00 0.00 100 1011.4
20260506161133 10 191 6.4 6.4 0.00 0.00 0.00 100 1011.5
20260506160134 10 202 8.0 8.0 0.00 0.00 0.00 100 1011.5
20260506155134 10 195 8.0 8.0 0.00 0.00 0.00 100 1011.5
20260506154134 10 222 4.8 4.8 0.00 0.00 0.00 100 1011.6
20260506153134 10 227 4.8 4.8 0.00 0.00 0.00 100 1011.7
20260506152133 10 194 4.8 4.8 0.00 0.00 0.00 100 1011.9
20260506151133 10 208 4.8 4.8 0.00 0.00 0.00 100 1012.2
20260506150134 10 196 4.8 4.8 0.00 0.00 0.00 100 1012.5
20260506145133 10 184 4.8 4.8 0.00 0.00 0.00 100 1012.4
20260506144134 10 202 6.4 6.4 0.00 0.00 0.00 100 1012.4
20260506143133 10 220 8.0 8.0 0.00 0.00 0.00 100 1012.4
20260506142133 10 201 6.4 6.4 0.00 0.00 0.00 100 1012.4
20260506141133 10 185 6.4 6.4 0.00 0.00 0.00 100 1012.2
20260506140134 10 196 4.8 4.8 0.00 0.00 0.00 100 1012.3
20260506135133 10 210 8.0 8.0 0.00 0.00 0.00 100 1012.3
20260506134134 10 201 6.4 6.4 0.00 0.00 0.00 100 1012.0
20260506133133 10 194 8.0 8.0 0.00 0.00 0.00 100 1012.0
20260506132133 10 202 4.8 4.8 0.00 0.00 0.00 100 1012.0
20260506131134 10 202 6.4 6.4 0.00 0.00 0.00 100 1012.0
20260506130133 10 205 6.4 6.4 0.00 0.00 0.00 100 1012.2
20260506125133 10 205 6.4 6.4 0.00 0.00 0.00 100 1012.4
20260506124134 10 191 4.8 4.8 0.00 0.00 0.00 100 1012.5
20260506123133 10 192 8.0 8.0 0.00 0.00 0.00 100 1012.6
20260506122133 10 199 8.0 8.0 0.00 0.00 0.00 100 1012.6
20260506121133 10 172 8.0 8.0 0.00 0.00 0.00 100 1012.6
20260506120134 9 187 8.0 8.0 0.00 0.00 0.00 100 1012.4
20260506115134 9 180 9.7 9.7 0.00 0.00 0.00 100 1012.4
20260506114133 9 184 9.7 9.7 0.00 0.00 0.00 99 1012.3
20260506113134 9 191 9.7 9.7 0.00 0.00 0.00 99 1012.2
20260506112134 9 181 9.7 9.7 0.00 0.00 0.00 99 1012.4
20260506111134 9 194 8.0 8.0 0.00 0.00 0.00 98 1012.5
20260506110133 9 194 9.7 9.7 0.00 0.00 0.00 98 1012.5
20260506105133 9 177 8.0 8.0 0.00 0.00 0.00 97 1012.4
20260506104134 10 194 8.0 8.0 0.00 0.00 0.00 96 1012.4
20260506103134 10 196 8.0 8.0 0.00 0.00 0.00 95 1012.4
20260506102133 10 192 8.0 8.0 0.00 0.00 0.00 94 1012.4
20260506101134 10 191 9.7 9.7 0.00 0.00 0.00 94 1012.3
20260506100134 10 194 6.4 6.4 0.00 0.00 0.00 93 1012.3
20260506095133 10 187 9.7 9.7 0.00 0.00 0.00 92 1012.4
20260506094134 10 196 8.0 8.0 0.00 0.00 0.00 91 1012.3
20260506093134 10 191 8.0 8.0 0.00 0.00 0.00 91 1012.2
20260506092133 10 196 8.0 8.0 0.00 0.00 0.00 90 1012.3
20260506091134 10 187 9.7 9.7 0.00 0.00 0.00 90 1012.6
20260506090134 10 196 9.7 9.7 0.00 0.00 0.00 90 1012.6
20260506085133 10 202 6.4 6.4 0.00 0.00 0.00 89 1012.5
20260506084134 10 198 8.0 8.0 0.00 0.00 0.00 88 1012.6
20260506083135 10 196 11.3 11.3 0.00 0.00 0.00 88 1012.6
20260506082134 10 191 9.7 9.7 0.00 0.00 0.00 88 1012.7
20260506081133 10 194 9.7 9.7 0.00 0.00 0.00 88 1012.8
20260506080135 11 188 8.0 8.0 0.00 0.00 0.00 87 1012.9
20260506073133 10 188 8.0 8.0 0.00 0.00 0.00 87 1013.2
20260506072133 10 191 6.4 6.4 0.00 0.00 0.00 87 1013.3
20260506071133 11 201 6.4 6.4 0.00 0.00 0.00 87 1013.1
20260506070133 11 194 8.0 8.0 0.00 0.00 0.00 85 1013.4
20260506062134 11 201 4.8 4.8 0.00 0.00 0.00 83 1013.4
20260506061134 11 203 4.8 4.8 0.00 0.00 0.00 82 1013.6
20260506060134 11 208 4.8 4.8 0.00 0.00 0.00 81 1013.7
20260506051133 11 300 4.8 4.8 0.00 0.00 0.00 79 1014.2
20260506050133 12 187 1.6 1.6 0.00 0.00 0.00 78 1014.3
20260506045134 12 215 1.6 1.6 0.00 0.00 0.00 77 1014.3
20260506044136 12 201 3.2 3.2 0.00 0.00 0.00 77 1014.2
20260506043134 12 220 3.2 3.2 0.00 0.00 0.00 76 1014.3
20260506042134 13 187 3.2 3.2 0.00 0.00 0.00 73 1014.4
20260506041135 13 203 3.2 3.2 0.00 0.00 0.00 70 1014.2
20260506040133 13 198 6.4 6.4 0.00 0.00 0.00 68 1014.2
20260506035134 13 195 9.7 9.7 0.00 0.00 0.00 68 1014.0
20260506034135 13 201 6.4 6.4 0.00 0.00 0.00 68 1014.0
20260506033133 13 194 8.0 8.0 0.00 0.00 0.00 69 1014.3
20260506032134 13 187 8.0 8.0 0.00 0.00 0.00 72 1014.3